This demonstration page uses our WeatherBlox Daily Observations layout. Learn more.

Left ArrowRight Arrow

Hourly Observations for May 20, 2015

Temp ( °F °C ) Dew Point ( °F °C ) Humidity (%) Winds ( mph kmh ) Pressure ( in mb ) Visibility ( mi km ) Precip ( " mm )
12:58 am 00:58 Mostly Cloudy with Light Rain 49 9.5 42 5.6 77 77 NE 8 13 30.21 1023 10 16 0.01 0.25
1:31 am 01:31 Clear 48 9 45 7 87 87 NE 3 6 30.24 1024 10 16 0.00 0.00
1:53 am 01:53 Mostly Clear with Light Rain 48 9 43 6 82 82 NE 6 9 30.21 1023 10 16 0.00 0.00
1:59 am 01:59 Clear 48 9 43 6 82 82 NE 7 11 30.21 1023 10 16 0.00 0.00
2:00 am 02:00 Mostly Clear with Light Rain 48 9 43 6 82 82 VRB 6 9 30.21 1023 10 16 0.00 0.00
2:23 am 02:23 Mostly Clear with Light Rain 48 9 45 7 87 87 NNE 6 9 30.21 1023 10 16 0.00 0.00
3:24 am 03:24 Mostly Clear 48 9 45 7 87 87 N 7 11 30.21 1023 10 16 0.00 0.00
3:58 am 03:58 Mostly Cloudy 47 8.5 44 6.6 88 88 NNE 5 7 30.19 1022 10 16 0.01 0.25
4:19 am 04:19 Mostly Cloudy with Light Rain 46 8 45 7 93 93 NNE 6 9 30.21 1023 10 16 0.00 0.00
4:58 am 04:58 Mostly Cloudy with Light Rain 47 8.2 44 6.8 91 91 NNE 6 9 30.18 1022 9 14 0.03 0.76
5:19 am 05:19 Mostly Clear with Light Rain 46 8 45 7 93 93 NNE 6 9 30.18 1022 10 16 0.00 0.00
5:24 am 05:24 Partly Cloudy 46 8 45 7 93 93 NNE 3 6 30.21 1023 10 16 0.00 0.00
5:58 am 05:58 Partly Cloudy 47 8.1 44 6.8 92 92 NNE 6 9 30.19 1022 10 16 0.00 0.03
6:58 am 06:58 Cloudy 47 8.1 44 6.6 90 90 N 6 9 30.21 1023 10 16 0.00 0.00
7:58 am 07:58 Cloudy 47 8.6 44 6.7 88 88 N 7 11 30.22 1023 10 16 0.00 0.00
8:31 am 08:31 Cloudy 48 9 45 7 87 87 N 8 13 30.24 1024 10 16 0.00 0.00
8:35 am 08:35 Mostly Cloudy 48 9 45 7 87 87 N 8 13 30.24 1024 10 16 0.00 0.00
8:58 am 08:58 Cloudy 48 9 43 6 82 82 NNE 8 13 30.23 1024 10 16 0.00 0.00
9:07 am 09:07 Cloudy 48 9 43 6 82 82 NNE 6 9 30.24 1024 10 16 0.00 0.00
9:46 am 09:46 Mostly Cloudy with Mist and Fog 48 9 45 7 87 87 NNE 8 13 30.24 1024 4 6 0.00 0.00
9:55 am 09:55 Mostly Cloudy with Mist and Fog 48 9 45 7 87 87 NNE 6 9 30.24 1024 3 4 0.00 0.00
9:56 am 09:56 Mostly Cloudy with Mist and Fog 48 9 45 7 87 87 NNE 7 11 30.24 1024 3 4 0.00 0.00
9:58 am 09:58 Mostly Cloudy with Mist and Fog 47 8.6 44 6.9 89 89 NNE 6 9 30.24 1024 3 4 0.00 0.00
10:01 am 10:01 Mostly Cloudy with Mist and Fog 48 9 45 7 87 87 N 6 9 30.24 1024 3 5 0.00 0.00
10:08 am 10:08 Cloudy with Light Rain 46 8 45 7 93 93 NNE 6 9 30.24 1024 3 4 0.00 0.00
10:17 am 10:17 Cloudy with Light Rain 46 8 45 7 93 93 N 5 7 30.24 1024 3 5 0.00 0.00
10:23 am 10:23 Cloudy with Light Rain 46 8 45 7 93 93 N 5 7 30.24 1024 4 6 0.00 0.00
10:58 am 10:58 Mostly Cloudy 47 8.6 45 7.4 92 92 VRB 6 9 30.25 1024 7 11 0.01 0.25
10:59 am 10:59 Mostly Cloudy with Drizzle 48 9 45 7 87 87 NNE 6 9 30.27 1025 7 11 0.00 0.00
11:08 am 11:08 Mostly Cloudy with Light Rain 48 9 45 7 87 87 N 8 13 30.27 1025 6 10 0.00 0.00
11:14 am 11:14 Mostly Cloudy with Light Rain 48 9 45 7 87 87 N 6 9 30.27 1025 6 10 0.00 0.00
11:46 am 11:46 Mostly Cloudy with Drizzle 48 9 45 7 87 87 N 6 9 30.27 1025 9 14 0.00 0.00
11:53 am 11:53 Mostly Cloudy 48 9 45 7 87 87 N 7 11 30.27 1025 8 13 0.00 0.00
11:58 am 11:58 Mostly Cloudy 49 9.3 46 7.5 89 89 N 7 11 30.25 1024 8 13 0.00 0.03
11:59 am 11:59 Mostly Cloudy with Light Rain 48 9 46 8 94 94 N 6 9 30.27 1025 9 14 0.00 0.00
12:01 pm 12:01 Partly Cloudy with Light Rain 48 9 46 8 94 94 N 6 9 30.27 1025 9 14 0.00 0.00
12:02 pm 12:02 Mostly Cloudy with Light Rain 48 9 46 8 94 94 N 6 9 30.27 1025 9 14 0.00 0.00
12:12 pm 12:12 Mostly Cloudy 48 9 45 7 87 87 N 6 9 30.27 1025 8 13 0.00 0.00
12:13 pm 12:13 Mostly Cloudy 48 9 45 7 87 87 N 6 9 30.27 1025 8 13 0.00 0.00
12:19 pm 12:19 Mostly Cloudy 48 9 45 7 87 87 N 6 9 30.27 1025 8 13 0.00 0.00
12:27 pm 12:27 Mostly Cloudy 50 10 45 7 82 82 NNW 7 11 30.27 1025 10 16 0.00 0.00
12:34 pm 12:34 Mostly Cloudy 50 10 45 7 82 82 N 10 17 30.27 1025 10 16 0.00 0.00
12:50 pm 12:50 Mostly Cloudy 48 9 45 7 87 87 N 7 11 30.27 1025 10 16 0.00 0.00
12:58 pm 12:58 Mostly Cloudy 49 9.5 45 7 85 85 N 8 13 30.25 1025 10 16 0.00 0.03
1:03 pm 13:03 Mostly Cloudy with Light Rain 50 10 45 7 82 82 NNE 10 17 30.27 1025 9 14 0.00 0.00
1:10 pm 13:10 Cloudy 48 9 45 7 87 87 NNE 8 13 30.27 1025 9 14 0.00 0.00
1:30 pm 13:30 Mostly Cloudy with Light Rain 50 10 45 7 82 82 N 7 11 30.27 1025 9 14 0.00 0.00
1:40 pm 13:40 Mostly Cloudy 50 10 46 8 88 88 N 8 13 30.27 1025 10 16 0.00 0.00
1:55 pm 13:55 Mostly Cloudy 50 10 45 7 82 82 N 7 11 30.27 1025 10 16 0.00 0.00
1:58 pm 13:58 Mostly Cloudy 51 10.3 44 6.9 80 80 N 8 13 30.25 1024 10 16 0.00 0.03
1:59 pm 13:59 Mostly Cloudy 50 10 45 7 82 82 N 8 13 30.27 1025 10 16 0.00 0.00
2:06 pm 14:06 Mostly Cloudy 50 10 45 7 82 82 N 7 11 30.27 1025 10 16 0.00 0.00
2:23 pm 14:23 Mostly Cloudy 52 11 45 7 77 77 N 7 11 30.24 1024 10 16 0.00 0.00
2:25 pm 14:25 Mostly Cloudy 52 11 45 7 77 77 N 9 15 30.24 1024 10 16 0.00 0.00
2:26 pm 14:26 Mostly Cloudy with Light Rain 50 10 45 7 82 82 N 7 11 30.27 1025 10 16 0.00 0.00
2:36 pm 14:36 Mostly Cloudy 50 10 43 6 76 76 NNE 6 9 30.27 1025 10 16 0.00 0.00
2:40 pm 14:40 Mostly Cloudy 50 10 43 6 76 76 N 9 15 30.27 1025 10 16 0.00 0.00
2:58 pm 14:58 Cloudy 51 10.3 44 6.5 78 78 N 8 13 30.25 1024 10 16 0.00 0.03
3:22 pm 15:22 Cloudy 50 10 43 6 76 76 N 8 13 30.27 1025 10 16 0.00 0.00
3:43 pm 15:43 Cloudy 50 10 43 6 76 76 NNW 6 9 30.27 1025 10 16 0.00 0.00
3:45 pm 15:45 Cloudy 50 10 43 6 76 76 N 7 11 30.27 1025 10 16 0.00 0.00
3:59 pm 15:59 Cloudy 50 10 43 6 76 76 N 8 13 30.27 1025 10 16 0.00 0.00
4:00 pm 16:00 Cloudy 50 10 43 6 76 76 N 7 11 30.27 1025 10 16 0.00 0.00
4:58 pm 16:58 Cloudy 48 8.8 43 6.3 84 84 N 9 15 30.25 1025 10 16 0.00 0.00
5:23 pm 17:23 Cloudy 48 9 43 6 82 82 N 8 13 30.27 1025 10 16 0.00 0.00
5:58 pm 17:58 Cloudy 50 10 43 6.2 77 77 NNE 6 9 30.24 1024 10 16 0.00 0.00
6:23 pm 18:23 Cloudy 50 10 43 6 76 76 NNE 8 13 30.24 1024 10 16 0.00 0.00
6:58 pm 18:58 Cloudy 49 9.7 42 5.6 76 76 N 2 4 30.24 1024 10 16 0.00 0.00
6:59 pm 18:59 Cloudy 50 10 43 6 76 76 VRB 3 6 30.24 1024 10 16 0.00 0.00
7:54 pm 19:54 Cloudy with Drizzle 50 10 43 6 76 76 N 6 9 30.27 1025 10 16 0.00 0.00
7:58 pm 19:58 Cloudy with Drizzle 49 9.5 42 5.6 77 77 VRB 6 9 30.25 1024 10 16 0.00 0.03
7:59 pm 19:59 Cloudy with Light Rain 50 10 43 6 76 76 NNW 7 11 30.27 1025 10 16 0.00 0.00
8:08 pm 20:08 Cloudy 48 9 43 6 82 82 NNW 6 9 30.27 1025 10 16 0.00 0.00
8:58 pm 20:58 Cloudy 48 9 42 5.7 80 80 NNW 7 11 30.25 1025 10 16 0.00 0.03
9:58 pm 21:58 Cloudy 48 8.9 42 5.8 81 81 NNW 3 6 30.26 1025 10 16 0.00 0.00
10:58 pm 22:58 Mostly Clear 43 6.3 40 4.7 90 90 NW 3 6 30.27 1025 10 16 0.00 0.00
11:58 pm 23:58 Clear 40 4.4 38 3.6 95 95 WNW 7 11 30.29 1026 10 16 0.00 0.00

Powered by AerisWeather